Probability
0 3 3 0 0 0 0 0 0 0 0 0 0 0 0 3 3 3 10 13 16 16 26 32 45 45 48 45 39 39 39 29 29 29 29 32 32 32 32 32 35 35 32 29 23 23 23 16 13
0 0 0 0 0 0 0 0 0 0 0 0 0 0 0 3 3 3 6 10 13 16 19 29 45 42 42 39 35 35 32 29 29 32 32 26 26 29 29 26 32 29 29 29 16 16 19 13 13
0 0 0 0 0 0 0 0 0 0 0 0 0 0 3 3 3 3 13 13 16 19 16 32 42 42 42 39 32 26 29 29 32 29 26 26 26 26 23 19 29 29 23 26 19 16 13 13 13
0 0 0 0 0 0 0 0 0 0 0 0 0 0 3 3 3 6 10 10 16 19 16 29 42 42 42 42 29 26 23 23 26 26 26 23 23 23 16 16 13 16 13 16 16 13 13 13 13
0 0 0 0 0 0 0 0 0 0 0 0 0 3 3 3 6 6 10 10 10 16 16 26 39 42 42 39 29 26 26 23 23 23 19 16 16 13 13 16 10 13 6 10 10 10 13 13 13
0 0 0 0 0 0 0 0 0 0 0 0 0 3 3 3 6 6 10 13 13 13 13 16 35 35 35 35 35 29 26 23 23 23 16 13 13 13 10 10 10 10 10 6 6 6 10 10 10
0 0 0 0 0 0 0 0 0 0 0 0 0 3 3 3 3 6 6 13 13 13 13 10 19 23 35 35 35 32 29 19 19 19 23 19 16 10 10 10 6 10 10 10 6 6 6 6 6
0 0 0 0 0 0 0 0 0 0 0 0 0 0 3 3 3 6 6 3 3 6 10 6 3 16 13 13 16 23 23 19 19 19 10 10 10 6 6 10 10 6 6 6 6 6 6 6 3
0 0 0 0 0 0 0 0 0 0 0 0 0 0 3 3 3 3 3 3 3 3 6 3 13 10 10 13 10 13 13 13 13 13 10 3 3 3 6 6 3 10 6 6 10 10 6 6 0
0 0 0 0 0 0 0 0 0 0 0 0 0 0 3 3 3 3 3 3 3 3 3 3 3 6 6 6 3 6 6 13 6 6 3 3 3 3 0 3 3 6 6 6 6 3 3 0 0
0 0 0 0 0 0 0 0 0 0 0 0 0 0 3 3 3 3 3 3 0 0 0 3 3 6 3 6 3 3 3 6 6 3 3 3 0 0 0 0 0 3 3 3 3 3 0 0 0
0 0 0 0 0 0 0 0 0 0 0 0 0 3 3 3 3 3 3 0 0 0 0 3 3 3 3 0 3 6 3 3 3 0 3 0 0 0 0 0 3 3 3 3 3 3 0 0 0
0 0 0 0 0 0 0 0 0 0 0 0 0 3 3 3 6 3 0 0 0 0 0 0 0 3 3 0 0 3 3 0 0 0 0 0 0 3 0 0 0 3 3 3 3 3 0 0 0
0 0 0 0 0 0 0 0 0 0 0 0 0 0 0 3 3 3 0 0 0 0 0 0 0 0 0 0 0 0 3 3 0 0 0 3 0 0 0 0 0 3 3 0 3 3 0 0 0
0 0 0 0 0 0 0 0 0 0 0 0 0 0 0 0 3 3 0 0 0 0 0 0 0 0 0 0 0 0 0 0 0 0 0 0 0 0 0 0 3 3 3 3 0 0 0 0 0
0 0 0 0 0 0 0 0 0 0 0 0 0 0 0 0 0 0 0 0 0 0 0 0 0 0 0 0 0 0 0 0 0 0 0 0 0 0 0 0 0 3 3 3 0 0 0 0 0
0 0 0 0 0 0 0 0 0 0 0 0 0 0 0 0 0 0 0 0 0 0 0 0 0 0 0 0 0 0 0 0 0 0 0 0 0 0 0 0 0 3 3 3 0 0 0 0 0
0 0 0 0 0 0 0 0 0 0 0 0 0 0 0 0 0 0 0 0 0 0 0 0 0 0 0 0 0 0 0 0 0 0 0 0 0 0 0 0 0 3 0 0 0 0 0 0 0
0 0 0 0 0 0 0 0 0 0 0 0 0 0 0 0 0 0 0 0 0 0 0 0 0 0 0 0 0 0 0 0 0 0 0 0 0 0 0 0 0 0 0 0 0 0 0 0 0
0 0 0 0 0 0 0 0 0 0 0 0 0 0 0 0 0 0 0 0 0 0 0 0 0 0 0 0 0 0 0 0 0 0 0 0 0 0 0 0 0 0 0 0 0 0 0 0 0
0 0 0 0 0 0 0 0 0 0 0 0 0 0 0 0 0 0 0 0 0 0 0 0 0 0 0 0 0 0 0 0 0 0 0 0 0 0 0 0 0 0 0 0 0 0 0 0 0
0 0 0 0 0 0 0 0 0 0 0 0 0 0 0 0 0 0 0 0 0 0 0 0 0 0 0 0 0 0 0 0 0 0 0 0 0 0 0 0 0 0 0 0 0 0 0 0 0
0 0 0 0 0 0 0 0 0 0 0 0 0 0 0 0 0 0 0 0 0 0 0 0 0 0 0 0 0 0 0 0 0 0 0 0 0 0 0 0 0 0 0 0 0 0 0 0 0
0 0 0 0 0 0 0 0 0 0 0 0 0 0 0 0 0 0 0 0 0 0 0 0 0 0 0 0 0 0 0 0 0 0 0 0 0 0 0 0 0 0 0 0 0 0 0 0 0
0 0 0 0 0 0 0 0 0 0 0 0 0 0 0 0 0 0 0 0 0 0 0 0 0 0 0 0 0 0 0 0 0 0 0 0 0 0 0 0 0 0 0 0 0 0 0 0 0
0 0 0 0 0 0 0 0 0 0 0 0 0 0 0 0 0 0 0 0 0 0 0 0 0 0 0 0 0 0 0 0 0 0 0 0 0 0 0 0 0 0 0 0 0 0 0 0 0
0 0 0 0 0 0 0 0 0 0 0 0 0 0 0 0 0 0 0 0 0 0 0 0 0 0 0 0 0 0 0 0 0 0 0 0 0 0 0 0 0 0 0 0 0 0 0 0 0
0 0 0 0 0 0 0 0 0 0 0 0 0 0 0 0 0 0 0 0 0 0 0 0 0 0 0 0 0 0 0 0 0 0 0 0 0 0 0 0 0 0 0 0 0 0 0 0 0
0 0 0 0 0 0 0 0 0 0 0 0 0 0 0 0 0 0 0 0 0 0 0 0 0 0 0 0 0 0 0 0 0 0 0 0 0 0 0 0 0 0 0 0 0 0 0 0 0
0 0 0 0 0 0 0 0 0 0 0 0 0 0 0 0 0 0 0 0 0 0 0 0 0 0 0 0 0 0 0 0 0 0 0 0 0 0 0 0 0 0 0 0 0 0 0 0 0
Height
5795 5795 5796 5798 5799 5800 5802 5805 5806 5807 5809 5810 5811 5813 5814 5816 5818 5820 5820 5821 5823 5824 5826 5827 5829 5830 5831 5832 5833 5835 5836 5837 5837 5838 5839 5840 5841 5842 5843 5844 5844 5845 5846 5847 5848 5849 5850 5850 5851
5789 5790 5792 5793 5793 5795 5798 5800 5801 5802 5804 5805 5806 5808 5809 5811 5813 5814 5815 5817 5818 5820 5822 5823 5825 5826 5827 5829 5830 5831 5832 5833 5834 5835 5836 5837 5838 5839 5840 5841 5842 5842 5843 5844 5845 5846 5847 5848 5849
5784 5785 5786 5787 5788 5790 5793 5795 5796 5798 5799 5800 5801 5803 5805 5807 5808 5809 5811 5812 5814 5816 5818 5819 5821 5822 5823 5825 5826 5827 5829 5830 5831 5832 5833 5834 5835 5836 5837 5838 5839 5839 5840 5841 5842 5843 5844 5845 5845
5778 5779 5780 5782 5783 5785 5787 5790 5791 5792 5793 5795 5796 5798 5800 5802 5803 5805 5806 5807 5809 5811 5813 5814 5816 5817 5819 5820 5822 5823 5824 5826 5827 5828 5829 5830 5831 5832 5833 5834 5835 5836 5837 5838 5839 5840 5841 5841 5842
5772 5773 5774 5775 5778 5780 5782 5784 5785 5786 5787 5789 5791 5792 5794 5796 5797 5799 5801 5803 5804 5806 5808 5809 5811 5812 5814 5815 5817 5818 5820 5821 5822 5823 5825 5826 5827 5828 5829 5830 5831 5832 5833 5834 5835 5836 5837 5838 5838
5766 5767 5768 5770 5772 5774 5776 5778 5779 5780 5781 5783 5784 5786 5788 5790 5791 5793 5795 5797 5799 5801 5803 5804 5805 5807 5808 5810 5811 5813 5815 5816 5817 5818 5820 5821 5822 5823 5825 5826 5827 5828 5829 5830 5831 5832 5833 5833 5834
5760 5761 5762 5764 5766 5768 5771 5772 5773 5774 5775 5777 5778 5780 5781 5784 5785 5787 5788 5790 5793 5795 5797 5798 5799 5801 5803 5804 5806 5807 5809 5810 5812 5813 5814 5816 5817 5818 5819 5821 5822 5823 5824 5825 5826 5827 5828 5829 5830
5753 5755 5756 5758 5759 5761 5764 5765 5766 5767 5768 5770 5771 5773 5775 5778 5779 5780 5782 5784 5786 5788 5791 5792 5793 5795 5797 5798 5800 5801 5803 5804 5806 5807 5809 5810 5811 5813 5814 5815 5817 5818 5819 5820 5821 5822 5823 5824 5825
5747 5749 5750 5752 5753 5755 5757 5758 5759 5760 5762 5763 5764 5766 5768 5770 5771 5773 5775 5777 5779 5781 5783 5785 5787 5789 5791 5792 5793 5795 5797 5798 5800 5801 5802 5804 5805 5806 5808 5809 5811 5812 5813 5814 5816 5817 5818 5819 5819
5741 5743 5745 5746 5747 5748 5750 5752 5752 5754 5755 5756 5757 5758 5760 5762 5764 5766 5768 5770 5772 5774 5776 5778 5779 5781 5783 5785 5787 5788 5790 5792 5793 5794 5796 5797 5798 5800 5801 5803 5804 5805 5807 5808 5809 5810 5811 5812 5813
5736 5737 5739 5739 5740 5741 5742 5744 5745 5746 5748 5748 5749 5751 5753 5754 5756 5758 5761 5763 5765 5766 5768 5770 5772 5773 5776 5777 5779 5781 5783 5784 5786 5787 5789 5790 5792 5793 5794 5796 5797 5798 5800 5801 5802 5803 5804 5805 5806
5731 5731 5732 5733 5734 5735 5736 5737 5738 5739 5741 5741 5742 5743 5745 5747 5749 5751 5753 5755 5757 5759 5761 5763 5763 5765 5767 5769 5771 5773 5775 5777 5778 5780 5782 5783 5784 5786 5787 5788 5789 5791 5792 5793 5795 5796 5797 5798 5799
5725 5726 5726 5727 5727 5728 5729 5730 5730 5732 5733 5734 5735 5736 5738 5739 5741 5743 5745 5747 5749 5751 5753 5755 5756 5758 5760 5761 5763 5765 5767 5769 5770 5772 5773 5775 5776 5778 5779 5780 5781 5783 5784 5785 5787 5788 5789 5790 5791
5719 5719 5720 5720 5721 5721 5722 5723 5723 5725 5726 5727 5727 5728 5730 5732 5733 5735 5736 5739 5741 5743 5745 5746 5748 5750 5752 5753 5755 5757 5759 5760 5762 5763 5765 5767 5768 5769 5771 5772 5773 5774 5775 5777 5778 5779 5780 5781 5782
5713 5714 5714 5714 5714 5715 5715 5717 5717 5718 5718 5719 5720 5720 5722 5723 5725 5726 5728 5730 5733 5735 5736 5738 5739 5741 5743 5745 5746 5748 5749 5751 5753 5754 5756 5758 5759 5760 5762 5763 5764 5765 5766 5767 5768 5769 5771 5772 5773
5707 5707 5708 5709 5708 5707 5709 5710 5710 5710 5710 5711 5712 5712 5713 5714 5716 5718 5719 5721 5724 5726 5728 5729 5731 5732 5734 5736 5737 5739 5740 5742 5744 5745 5747 5748 5750 5751 5752 5754 5755 5756 5756 5757 5758 5760 5761 5761 5762
5701 5701 5701 5702 5701 5700 5700 5702 5703 5702 5702 5702 5703 5704 5704 5706 5707 5709 5711 5713 5715 5717 5719 5720 5721 5723 5725 5727 5728 5729 5731 5733 5734 5736 5737 5739 5740 5741 5742 5743 5745 5746 5746 5747 5748 5749 5750 5751 5752
5695 5695 5694 5694 5694 5693 5692 5693 5694 5694 5694 5694 5695 5695 5696 5697 5699 5700 5701 5704 5706 5707 5709 5711 5712 5714 5715 5717 5719 5720 5721 5723 5724 5726 5727 5729 5730 5731 5732 5733 5734 5735 5736 5736 5737 5738 5739 5740 5741
5689 5688 5687 5687 5686 5685 5685 5685 5686 5685 5685 5686 5686 5687 5687 5688 5690 5691 5692 5694 5696 5698 5700 5701 5703 5704 5706 5707 5709 5711 5712 5713 5714 5715 5717 5718 5719 5720 5721 5722 5723 5724 5724 5725 5726 5726 5727 5728 5729
5682 5681 5680 5680 5679 5677 5677 5677 5677 5677 5677 5677 5677 5678 5679 5679 5680 5682 5683 5685 5686 5688 5689 5691 5693 5694 5695 5697 5698 5700 5702 5703 5704 5705 5706 5707 5708 5709 5710 5711 5711 5712 5712 5713 5714 5715 5715 5716 5717
5675 5674 5673 5672 5671 5670 5668 5669 5669 5669 5668 5669 5669 5669 5670 5671 5672 5673 5674 5675 5676 5678 5679 5680 5682 5683 5685 5686 5688 5689 5690 5691 5693 5694 5695 5696 5697 5697 5698 5699 5699 5700 5700 5701 5702 5703 5704 5704 5705
5668 5667 5666 5664 5663 5662 5661 5658 5662 5660 5660 5660 5661 5660 5661 5661 5662 5663 5664 5665 5666 5667 5668 5670 5671 5672 5673 5675 5677 5678 5680 5681 5681 5683 5683 5684 5685 5685 5686 5687 5687 5688 5688 5689 5690 5690 5691 5692 5692
5661 5660 5658 5657 5655 5654 5653 5650 5653 5652 5651 5651 5652 5652 5652 5652 5653 5654 5655 5656 5657 5657 5658 5659 5660 5661 5662 5664 5665 5667 5668 5669 5670 5671 5672 5672 5673 5673 5674 5674 5675 5675 5676 5676 5677 5677 5678 5678 5679
5653 5652 5650 5648 5647 5646 5647 5643 5643 5644 5643 5642 5642 5643 5642 5643 5643 5644 5645 5646 5647 5647 5648 5649 5649 5650 5651 5653 5654 5655 5657 5658 5658 5659 5660 5660 5661 5661 5661 5661 5662 5662 5663 5663 5664 5664 5665 5665 5665
5646 5645 5642 5640 5638 5639 5639 5636 5637 5636 5636 5635 5634 5633 5633 5633 5634 5635 5635 5636 5637 5637 5638 5638 5639 5639 5640 5641 5643 5644 5645 5646 5647 5647 5648 5648 5648 5648 5648 5649 5649 5649 5650 5650 5651 5651 5652 5652 5653
5638 5637 5636 5633 5631 5631 5630 5629 5631 5629 5627 5626 5625 5624 5624 5624 5625 5625 5626 5626 5627 5627 5628 5628 5628 5628 5629 5630 5631 5632 5633 5634 5634 5635 5635 5636 5636 5636 5636 5636 5636 5636 5637 5637 5638 5639 5639 5639 5640
5631 5629 5629 5626 5624 5623 5622 5623 5623 5622 5620 5618 5617 5616 5615 5616 5615 5616 5616 5616 5617 5617 5618 5618 5618 5618 5618 5619 5620 5621 5621 5622 5622 5623 5623 5623 5623 5623 5623 5623 5624 5624 5624 5625 5625 5626 5626 5627 5627
5624 5622 5621 5618 5616 5614 5614 5615 5615 5614 5612 5610 5609 5607 5607 5607 5607 5606 5607 5607 5607 5607 5607 5608 5608 5608 5608 5608 5609 5609 5609 5610 5610 5610 5611 5611 5611 5611 5611 5611 5611 5611 5612 5612 5612 5613 5613 5614 5614
5617 5616 5613 5611 5610 5608 5606 5610 5608 5606 5604 5602 5600 5599 5599 5598 5598 5597 5597 5598 5598 5598 5598 5597 5597 5597 5597 5597 5597 5597 5598 5598 5598 5598 5599 5599 5599 5598 5598 5598 5598 5599 5599 5600 5600 5601 5601 5601 5601
5609 5608 5606 5605 5603 5601 5599 5602 5600 5598 5596 5594 5593 5591 5590 5590 5590 5589 5589 5588 5588 5588 5588 5588 5588 5587 5587 5587 5586 5586 5586 5587 5587 5587 5587 5587 5587 5587 5586 5586 5587 5587 5588 5588 5588 5589 5589 5589 5589
Wind_Speed
23 24 25 25 26 27 26 24 24 25 26 25 25 25 25 26 26 26 24 23 23 23 23 22 21 21 21 20 20 19 18 18 18 17 17 17 17 16 16 16 16 16 15 14 14 13 13 12 12
24 25 26 26 26 27 26 24 25 25 26 27 27 26 26 27 27 26 26 24 24 24 23 23 23 23 22 21 21 20 20 20 20 19 19 18 18 18 18 18 17 17 17 16 16 16 15 15 15
25 26 26 27 26 26 25 25 26 25 27 28 28 28 28 27 27 27 27 26 25 25 25 25 25 24 24 23 23 22 22 21 21 20 21 20 20 20 20 19 19 19 18 18 18 17 17 17 16
26 27 28 28 27 26 26 25 25 26 27 28 28 29 29 29 28 28 29 28 27 27 27 26 26 26 25 25 24 24 24 23 23 22 22 22 21 21 21 21 21 21 20 20 20 19 19 18 18
27 28 29 29 28 27 27 26 26 27 27 27 28 29 29 30 30 30 30 30 29 28 28 28 28 27 27 27 26 26 26 25 25 24 24 24 23 23 23 23 23 22 22 22 21 21 21 20 20
27 28 28 28 27 28 27 27 27 27 28 29 30 30 30 31 30 30 31 31 31 29 29 30 30 29 29 29 29 28 28 28 27 27 27 26 25 25 25 25 25 24 24 24 23 23 22 22 22
28 28 28 28 28 28 27 27 29 29 30 30 31 31 31 31 31 31 32 32 32 32 32 32 31 31 31 30 30 30 30 29 30 29 29 28 28 27 27 26 26 25 25 25 25 25 24 24 24
27 28 27 27 28 28 28 28 29 30 32 32 32 32 32 31 32 32 33 33 33 33 33 32 32 32 32 32 32 31 31 31 31 31 31 30 30 29 29 28 28 27 27 27 27 26 26 26 26
26 27 27 26 27 28 28 29 30 31 32 32 31 32 33 32 32 33 33 33 34 34 34 34 35 35 34 34 34 33 33 33 33 33 32 32 32 31 31 30 29 29 29 29 29 29 29 29 29
25 26 26 26 28 29 29 30 31 31 31 33 33 33 33 33 33 33 33 34 34 35 35 35 35 36 36 36 35 35 34 35 34 33 33 33 33 32 32 32 31 31 31 31 31 31 31 31 31
24 25 26 27 29 30 30 30 31 32 32 31 32 32 33 33 33 33 32 33 34 34 34 35 35 35 36 37 37 36 36 36 35 35 34 34 34 34 34 33 33 33 33 33 33 33 33 34 34
24 24 25 27 28 29 30 30 30 31 31 32 32 32 33 34 34 34 34 34 34 35 35 35 35 35 35 36 37 37 37 37 37 37 37 36 36 36 36 35 35 35 35 35 35 35 35 36 36
23 23 24 26 27 29 30 30 31 31 32 33 34 35 34 35 35 35 36 35 34 35 35 35 36 36 37 37 37 37 37 36 36 37 37 37 38 38 38 38 38 38 38 38 37 38 38 37 37
24 24 25 26 27 29 30 30 31 31 33 34 34 36 36 36 36 37 37 37 36 36 37 38 37 37 38 38 39 39 39 38 38 38 38 38 38 39 40 40 40 40 40 40 40 40 40 40 40
24 25 25 26 28 29 31 31 32 32 33 33 33 35 36 36 36 37 37 37 38 38 38 39 38 38 38 39 39 39 39 40 39 39 39 39 39 39 40 40 40 41 42 42 42 42 42 42 41
24 25 25 26 27 28 31 31 32 32 33 34 34 35 35 36 36 36 37 37 38 38 38 39 40 39 39 39 39 40 40 40 40 40 40 40 40 41 41 41 42 42 43 43 44 44 44 44 43
24 25 26 27 28 29 30 31 32 33 33 33 34 35 35 36 36 36 37 38 38 38 39 38 39 40 40 40 40 40 40 41 42 42 42 42 42 43 42 42 43 44 44 44 44 43 44 45 45
25 26 27 28 28 29 31 31 31 33 33 33 33 34 35 35 35 36 36 38 38 38 39 39 40 41 42 43 42 41 41 41 42 43 44 44 44 44 44 44 45 45 45 45 45 45 45 45 46
26 27 28 28 29 30 31 32 32 33 33 33 34 34 35 35 36 36 37 38 39 40 40 41 41 42 43 43 43 43 43 43 44 44 45 45 46 46 46 46 46 46 46 46 46 46 46 47 47
27 27 28 29 30 31 32 32 32 32 32 32 32 33 34 35 36 37 37 37 39 39 41 42 42 43 43 43 44 44 44 44 44 45 45 46 47 47 48 48 47 47 47 48 48 48 47 48 48
27 28 28 29 30 31 33 32 32 32 32 32 32 33 34 36 36 37 39 38 39 40 40 41 42 43 43 44 44 44 44 44 44 45 46 46 47 47 48 48 48 48 49 49 49 49 49 49 49
28 28 29 30 31 31 31 33 30 30 31 32 32 32 34 35 36 37 38 39 39 40 39 40 42 42 43 43 44 45 44 45 46 47 48 48 47 48 48 49 49 49 49 49 49 50 50 50 50
28 28 29 30 32 32 31 34 30 29 30 31 32 32 34 34 35 37 37 38 39 39 39 40 41 41 42 43 44 45 45 46 46 47 47 47 48 48 49 49 49 49 49 49 50 50 50 50 50
28 29 30 31 32 33 31 33 31 29 30 30 31 32 33 34 34 35 36 37 38 39 39 40 41 42 43 43 43 44 44 45 46 46 47 47 48 49 49 49 49 50 49 49 49 49 50 50 50
28 29 30 32 32 33 31 32 31 30 29 30 30 32 32 33 34 35 35 36 37 38 38 39 40 42 43 44 44 43 44 45 46 46 46 47 47 48 48 49 49 49 49 49 49 49 49 49 50
29 29 30 32 32 33 31 32 30 30 30 31 31 31 33 33 34 35 35 35 36 37 37 38 39 40 41 43 44 44 45 45 45 45 45 46 46 47 48 48 48 48 48 48 49 49 49 49 50
30 30 30 32 33 33 32 32 31 30 31 32 31 32 33 34 34 35 35 35 35 36 36 37 38 38 39 41 42 43 44 45 45 45 45 46 46 46 47 48 48 48 48 48 48 48 49 49 49
29 29 29 31 32 33 33 32 31 31 31 32 32 31 32 33 33 34 35 35 35 36 36 37 37 37 38 39 41 42 42 43 44 44 44 44 45 46 47 47 47 47 47 47 47 47 47 47 47
28 28 29 31 32 33 34 32 31 31 32 32 32 32 32 32 32 32 33 34 35 36 36 36 37 38 38 39 39 41 41 41 42 42 43 43 43 43 44 44 45 45 45 45 46 46 46 46 46
29 28 30 31 32 34 35 33 31 31 32 31 31 32 31 32 31 31 32 33 34 35 36 36 37 37 37 38 39 39 40 40 41 41 42 42 41 42 42 42 43 43 43 44 44 45 45 45 45
Wind_Direction
255 253 252 253 251 249 250 251 251 250 250 249 248 247 247 248 249 250 251 249 247 248 249 249 249 250 250 251 251 250 248 245 244 244 244 245 246 245 244 244 244 244 247 249 247 247 247 248 250
254 254 252 251 251 250 249 250 250 250 250 249 248 247 246 247 249 250 250 250 249 249 249 249 249 250 250 250 250 249 248 247 245 247 245 246 248 248 247 247 247 247 247 250 250 247 248 249 251
254 253 252 250 250 252 253 252 252 251 250 249 249 248 249 248 249 250 250 251 249 249 250 249 249 250 250 250 249 249 249 249 248 249 247 245 247 249 249 249 250 250 250 250 251 251 250 250 251
255 254 252 251 251 253 254 255 256 253 250 249 250 250 250 251 250 250 250 251 250 250 250 250 249 249 249 249 250 249 250 250 251 251 249 247 248 250 251 251 252 252 252 252 252 252 253 252 253
256 255 254 253 253 253 253 253 254 254 252 250 250 251 251 252 252 251 252 252 251 250 251 250 249 250 250 251 250 250 250 251 252 252 252 250 250 251 252 253 254 254 254 254 254 254 254 255 255
258 256 255 255 255 254 253 252 253 254 254 253 252 253 252 252 253 252 252 252 252 250 250 251 251 250 251 251 251 251 251 251 252 252 253 252 251 252 253 254 255 255 255 255 255 255 255 257 257
259 257 257 257 256 254 253 252 252 253 255 255 254 255 254 253 254 252 251 251 252 252 251 250 250 251 251 252 252 252 251 252 253 253 254 253 251 252 253 254 255 256 256 255 256 256 256 257 259
259 258 257 256 255 254 254 254 255 255 255 256 255 255 255 254 254 253 252 252 252 252 251 251 251 251 251 252 252 252 252 252 253 254 255 254 253 253 254 254 255 255 256 257 257 257 258 259 260
259 257 257 256 255 254 254 256 256 256 257 258 257 256 256 254 254 254 253 252 252 252 252 251 252 252 252 252 252 253 254 253 254 255 256 256 255 254 254 255 256 256 257 257 258 258 259 259 261
259 259 260 257 256 257 256 255 257 258 258 258 258 258 256 255 253 253 253 252 252 252 252 252 253 252 252 252 253 254 255 255 256 256 257 257 257 257 256 256 256 256 257 257 258 258 259 260 261
260 262 261 259 257 258 258 257 257 258 258 258 257 257 256 255 253 252 253 253 252 252 252 253 253 252 252 253 254 254 255 256 256 257 257 258 258 259 258 257 257 257 257 258 258 259 260 260 262
263 264 261 260 259 258 259 259 261 259 258 259 258 257 257 256 256 254 253 253 253 252 252 253 253 253 253 253 254 254 255 255 256 257 258 258 259 259 258 257 257 257 257 258 258 260 260 261 262
265 265 263 262 261 259 261 260 261 261 259 260 260 259 259 258 257 256 255 253 253 252 252 254 253 252 253 254 254 255 256 257 257 257 258 258 258 259 259 258 258 258 258 258 259 260 261 261 262
269 269 266 264 262 261 262 263 263 261 259 260 261 261 261 259 258 257 255 254 253 254 253 254 254 253 253 253 254 256 255 256 258 258 259 260 260 260 260 261 260 259 259 260 260 261 262 262 262
274 273 269 266 265 264 264 264 264 265 262 262 262 262 261 260 259 257 255 253 254 255 255 254 254 254 254 254 254 255 256 256 258 258 258 259 260 261 262 262 263 262 261 261 261 262 262 263 263
275 275 273 270 269 269 268 266 265 266 264 262 262 263 262 261 260 256 255 255 254 254 255 254 254 254 254 255 254 255 255 256 257 258 259 259 260 261 263 263 263 263 263 262 263 263 263 263 264
276 275 275 274 274 274 272 271 268 267 266 264 263 264 264 262 260 257 256 256 255 254 255 256 254 253 254 255 255 255 256 257 257 258 259 260 261 262 263 264 264 264 264 264 264 264 264 264 264
277 276 275 276 276 276 275 275 272 269 267 265 265 264 265 263 260 259 258 256 255 255 254 255 256 255 255 256 257 257 258 259 259 259 260 261 261 263 264 265 265 264 264 264 264 264 265 265 265
279 279 278 277 277 277 277 276 275 273 271 268 266 265 264 262 260 259 259 258 256 255 256 256 256 256 256 256 257 258 259 260 260 260 261 262 262 263 264 265 266 265 266 266 266 266 266 266 266
280 279 279 279 279 279 277 276 275 274 272 271 269 266 264 261 259 259 259 258 257 258 258 256 256 257 257 257 258 259 259 260 260 261 262 263 264 265 265 266 266 266 266 267 267 267 266 266 267
280 280 280 280 280 281 281 278 277 276 274 271 268 266 264 262 260 260 259 260 259 259 259 258 256 256 257 257 257 259 260 261 261 261 262 263 265 265 266 266 266 266 267 267 267 267 267 267 267
282 281 281 281 282 283 283 282 280 279 276 273 270 268 266 263 261 260 260 261 262 262 261 260 258 258 258 258 259 261 262 263 263 263 264 264 265 265 266 267 266 267 268 268 267 267 267 267 267
285 282 281 282 282 283 284 284 285 282 279 275 272 270 268 265 264 264 263 263 264 264 262 261 260 260 261 261 260 261 262 263 265 265 265 265 266 266 267 267 267 267 268 268 268 268 268 269 268
287 285 282 282 282 283 284 284 285 285 282 280 275 272 270 268 268 267 266 264 265 265 264 263 261 261 262 262 262 263 263 264 265 265 266 266 267 268 267 267 267 267 268 268 268 268 268 268 268
287 286 284 282 283 285 286 285 285 286 285 282 279 274 272 270 269 268 269 267 266 266 266 264 264 263 263 264 263 264 265 265 266 266 267 268 268 269 268 267 267 267 267 267 268 268 268 268 268
286 285 284 285 285 287 286 286 287 285 285 284 281 276 272 271 271 270 269 268 267 268 268 266 265 265 264 264 264 265 266 266 266 266 267 268 269 268 268 267 267 267 267 267 267 268 268 269 269
285 283 284 285 285 286 287 288 288 286 285 284 283 278 275 272 272 270 269 269 268 268 268 267 267 267 266 266 266 265 267 267 266 266 267 269 269 268 267 267 266 267 267 267 268 268 268 269 269
283 283 283 284 287 289 289 289 290 290 289 286 284 280 276 274 274 272 270 269 269 269 269 268 268 268 267 268 267 266 267 268 266 267 268 269 269 269 267 266 266 266 266 267 268 268 268 269 270
281 280 282 284 285 288 290 291 291 290 289 288 285 282 278 275 274 272 271 270 268 268 269 269 269 269 269 270 269 268 269 269 269 268 268 270 270 271 269 268 267 266 267 268 268 268 268 269 270
280 281 282 282 284 285 288 290 291 290 286 287 286 282 278 275 274 272 271 270 270 269 270 269 270 271 271 272 272 271 270 271 270 269 269 270 271 270 270 268 267 267 268 269 269 269 268 269 270